Torna al catalogo

TITAN 3C TRANSTAGE DEB

AttivoHEO
NORAD 27867·DEBRIS·🇺🇸 United States

Lanciato Dec 21, 1965 da Cape Canaveral Space Force Station

Loading…

Prossimi Passaggi (prossime 24 ore)

TLE

AggiornatoSource: Space-Track

Epoca: Sep 14, 2026, 11:21 UTC

1 27867U 65108BN  26257.47295950 -.00000120  00000-0  00000-0 0  9997
2 27867  26.5689  24.1250 6614819  15.3458   8.9988  2.66856685141003

Traccia TITAN 3C TRANSTAGE DEB in tempo reale con AllMySat

Download on the App Store